Location: Devargunta
(16.7631°N, 80.9077°E)
Time: 11:06:42
(UTC+00:00)

CZ-2C R/B - Pass Details

Date: 19 January 2021
Orbit: 785 x 870 km, 98.2° (Epoch: 28 February)

Event Time Altitude Azimuth Distance (km) Brightness Sun altitude
Rises 13:01:26 0° 25° (NNE) 3,430 5.5 -8.9°
Reaches altitude 10° 13:03:59 10° 34° (NNE) 2,500 4.7 -9.5°
Maximum altitude 13:09:05 37° 100° (E) 1,323 3.3 -10.7°
Drops below altitude 10° 13:14:12 10° 166° (SSE) 2,507 5.2 -11.8°
Sets 13:16:45 0° 174° (S) 3,440 6.0 -12.4°
